Powrót do katalogu

COSMOS 1691 DEB

AktywnyPO
NORAD 16272·DEBRIS·🇷🇺 Russia

Wystrzelony Oct 9, 1985 z Plesetsk Cosmodrome

Loading…

Następne Przeloty (najbliższe 24 godziny)

TLE

ŚwieżeSource: Space-Track

Epoka: Sep 13, 2026, 12:31 UTC

1 16272U 85094R   26256.52197794  .00000196  00000-0  86320-3 0  9997
2 16272  82.6125  79.0606 0041230 111.8064 306.4685 12.75335233899274

Śledź COSMOS 1691 DEB w czasie rzeczywistym z AllMySat

Download on the App Store